QPF
0.02 0.02 0.03 0.03 0.03 0.02 0.02 0.03 0.04 0.04 0.04 0.03 0.03 0.04 0.08 0.10 0.07 0.05 0.04 0.03 0.03 0.03 0.04 0.05 0.05 0.04 0.03 0.03 0.01 0.01 0.01 0.01 0.01 0.01 0.01 0.02 0.02 0.04
0.02 0.02 0.02 0.02 0.02 0.02 0.02 0.02 0.03 0.05 0.06 0.06 0.03 0.04 0.05 0.07 0.09 0.08 0.06 0.04 0.03 0.02 0.02 0.02 0.02 0.02 0.02 0.01 0.01 0.00 0.01 0.01 0.01 0.01 0.01 0.01 0.02 0.04
0.01 0.02 0.03 0.02 0.01 0.01 0.01 0.02 0.03 0.05 0.06 0.06 0.04 0.04 0.04 0.04 0.06 0.07 0.07 0.05 0.03 0.03 0.02 0.02 0.01 0.01 0.01 0.00 0.00 0.00 0.00 0.01 0.01 0.01 0.01 0.01 0.01 0.03
0.03 0.04 0.03 0.01 0.01 0.01 0.01 0.01 0.02 0.02 0.03 0.04 0.04 0.04 0.03 0.03 0.06 0.08 0.07 0.06 0.04 0.04 0.04 0.02 0.01 0.01 0.01 0.00 0.00 0.01 0.01 0.01 0.00 0.01 0.01 0.01 0.01 0.01
0.04 0.04 0.02 0.02 0.01 0.01 0.01 0.02 0.03 0.03 0.03 0.03 0.03 0.03 0.04 0.04 0.05 0.04 0.04 0.04 0.04 0.04 0.05 0.04 0.03 0.01 0.01 0.01 0.01 0.02 0.02 0.01 0.01 0.00 0.01 0.01 0.01 0.01
0.05 0.04 0.03 0.03 0.03 0.03 0.02 0.02 0.04 0.03 0.03 0.03 0.03 0.03 0.03 0.04 0.04 0.03 0.03 0.03 0.03 0.04 0.04 0.04 0.03 0.02 0.02 0.02 0.03 0.05 0.04 0.04 0.02 0.02 0.02 0.01 0.00 0.00
0.07 0.06 0.04 0.04 0.04 0.04 0.03 0.02 0.02 0.02 0.02 0.03 0.03 0.04 0.04 0.03 0.03 0.03 0.02 0.03 0.03 0.03 0.04 0.04 0.03 0.03 0.02 0.03 0.04 0.08 0.06 0.05 0.04 0.03 0.03 0.01 0.00 0.00
0.07 0.08 0.06 0.05 0.05 0.05 0.04 0.04 0.03 0.02 0.02 0.03 0.03 0.03 0.03 0.02 0.02 0.02 0.03 0.03 0.02 0.01 0.03 0.04 0.04 0.04 0.04 0.04 0.05 0.09 0.09 0.07 0.05 0.04 0.03 0.02 0.00 0.00
0.08 0.10 0.10 0.09 0.08 0.07 0.07 0.06 0.06 0.06 0.04 0.04 0.03 0.03 0.03 0.03 0.03 0.04 0.03 0.02 0.02 0.02 0.02 0.02 0.03 0.03 0.04 0.05 0.06 0.09 0.11 0.09 0.07 0.04 0.03 0.01 0.00 0.00
0.07 0.08 0.09 0.08 0.07 0.07 0.06 0.05 0.06 0.06 0.05 0.03 0.03 0.03 0.03 0.02 0.04 0.05 0.06 0.05 0.04 0.03 0.02 0.01 0.01 0.01 0.02 0.04 0.05 0.08 0.11 0.09 0.07 0.05 0.03 0.02 0.01 0.00
0.05 0.05 0.06 0.05 0.05 0.06 0.06 0.06 0.06 0.06 0.06 0.05 0.04 0.03 0.03 0.02 0.04 0.06 0.06 0.07 0.05 0.02 0.02 0.02 0.01 0.02 0.03 0.04 0.05 0.08 0.10 0.09 0.07 0.04 0.03 0.02 0.02 0.02
0.07 0.08 0.08 0.06 0.05 0.04 0.04 0.04 0.04 0.05 0.06 0.05 0.04 0.03 0.02 0.02 0.03 0.04 0.04 0.05 0.04 0.03 0.02 0.03 0.02 0.03 0.03 0.04 0.06 0.07 0.09 0.10 0.08 0.05 0.03 0.02 0.02 0.02
0.08 0.08 0.07 0.07 0.06 0.05 0.03 0.02 0.02 0.04 0.05 0.05 0.04 0.04 0.03 0.03 0.03 0.03 0.03 0.04 0.03 0.02 0.02 0.04 0.03 0.03 0.03 0.03 0.03 0.05 0.07 0.08 0.07 0.05 0.04 0.03 0.02 0.01
0.07 0.07 0.07 0.06 0.06 0.05 0.04 0.03 0.03 0.04 0.04 0.05 0.04 0.03 0.03 0.02 0.02 0.03 0.03 0.03 0.02 0.03 0.03 0.04 0.04 0.03 0.03 0.03 0.03 0.04 0.06 0.07 0.06 0.04 0.02 0.02 0.02 0.02
0.06 0.06 0.08 0.08 0.05 0.04 0.03 0.04 0.04 0.03 0.03 0.03 0.04 0.03 0.03 0.03 0.03 0.03 0.03 0.03 0.03 0.03 0.04 0.05 0.05 0.05 0.04 0.04 0.03 0.04 0.05 0.07 0.06 0.04 0.03 0.02 0.01 0.01
0.05 0.05 0.06 0.06 0.06 0.04 0.03 0.03 0.03 0.03 0.03 0.03 0.02 0.01 0.02 0.03 0.03 0.02 0.02 0.03 0.03 0.02 0.02 0.03 0.03 0.05 0.05 0.05 0.05 0.05 0.05 0.05 0.05 0.04 0.03 0.02 0.02 0.02
0.04 0.05 0.05 0.06 0.07 0.05 0.04 0.03 0.02 0.01 0.01 0.01 0.01 0.01 0.01 0.01 0.02 0.03 0.03 0.03 0.04 0.04 0.03 0.03 0.04 0.05 0.07 0.08 0.08 0.07 0.06 0.06 0.05 0.05 0.04 0.03 0.03 0.03
0.03 0.03 0.06 0.06 0.07 0.06 0.04 0.03 0.02 0.01 0.01 0.01 0.01 0.01 0.01 0.01 0.01 0.01 0.01 0.02 0.03 0.05 0.05 0.05 0.07 0.08 0.08 0.07 0.06 0.06 0.06 0.06 0.06 0.06 0.05 0.04 0.03 0.02
0.03 0.02 0.04 0.05 0.06 0.06 0.04 0.03 0.02 0.02 0.01 0.01 0.01 0.01 0.00 0.01 0.01 0.01 0.01 0.01 0.02 0.03 0.03 0.04 0.06 0.07 0.05 0.04 0.05 0.05 0.06 0.06 0.06 0.04 0.04 0.04 0.03 0.02
0.03 0.03 0.04 0.05 0.05 0.05 0.04 0.02 0.02 0.02 0.02 0.01 0.01 0.01 0.01 0.01 0.01 0.01 0.01 0.01 0.02 0.02 0.03 0.04 0.04 0.05 0.04 0.03 0.03 0.03 0.05 0.06 0.05 0.04 0.03 0.03 0.03 0.03
0.03 0.03 0.03 0.04 0.04 0.04 0.03 0.02 0.01 0.02 0.02 0.01 0.01 0.01 0.01 0.01 0.01 0.02 0.02 0.02 0.03 0.02 0.03 0.04 0.04 0.05 0.06 0.06 0.04 0.02 0.02 0.04 0.05 0.04 0.03 0.03 0.03 0.02
0.04 0.04 0.03 0.04 0.04 0.04 0.03 0.02 0.02 0.02 0.03 0.02 0.01 0.01 0.01 0.01 0.01 0.02 0.02 0.02 0.02 0.02 0.02 0.03 0.03 0.05 0.05 0.05 0.04 0.03 0.03 0.03 0.03 0.04 0.04 0.04 0.03 0.02
0.05 0.07 0.05 0.05 0.05 0.04 0.04 0.03 0.02 0.02 0.01 0.02 0.02 0.01 0.01 0.01 0.01 0.02 0.02 0.03 0.03 0.03 0.03 0.03 0.03 0.03 0.04 0.04 0.04 0.04 0.04 0.04 0.04 0.04 0.04 0.04 0.03 0.02
MSLP
1008.15 1008.40 1008.72 1009.05 1009.37 1009.66 1009.89 1010.05 1010.16 1010.24 1010.29 1010.33 1010.38 1010.44 1010.49 1010.52 1010.52 1010.49 1010.41 1010.29 1010.15 1010.01 1009.88 1009.75 1009.64 1009.53 1009.40 1009.24 1009.02 1008.75 1008.43 1008.09 1007.74 1007.42 1007.15 1006.97 1006.88 1006.87
1007.72 1007.92 1008.18 1008.49 1008.81 1009.11 1009.37 1009.59 1009.76 1009.90 1010.02 1010.14 1010.25 1010.35 1010.44 1010.51 1010.53 1010.51 1010.45 1010.36 1010.25 1010.14 1010.04 1009.97 1009.91 1009.85 1009.78 1009.67 1009.51 1009.29 1009.01 1008.69 1008.36 1008.04 1007.76 1007.56 1007.44 1007.40
1007.34 1007.47 1007.68 1007.95 1008.25 1008.55 1008.84 1009.09 1009.32 1009.52 1009.71 1009.88 1010.05 1010.21 1010.34 1010.44 1010.50 1010.51 1010.47 1010.40 1010.31 1010.22 1010.15 1010.11 1010.08 1010.07 1010.05 1009.99 1009.88 1009.72 1009.49 1009.21 1008.91 1008.61 1008.34 1008.13 1008.00 1007.95
1007.05 1007.11 1007.26 1007.49 1007.76 1008.06 1008.35 1008.64 1008.90 1009.15 1009.38 1009.61 1009.83 1010.03 1010.20 1010.34 1010.43 1010.47 1010.46 1010.41 1010.34 1010.27 1010.21 1010.19 1010.18 1010.19 1010.20 1010.19 1010.13 1010.02 1009.84 1009.62 1009.36 1009.10 1008.86 1008.66 1008.53 1008.47
1006.88 1006.87 1006.97 1007.15 1007.40 1007.68 1007.97 1008.26 1008.55 1008.82 1009.08 1009.33 1009.58 1009.81 1010.02 1010.19 1010.32 1010.39 1010.40 1010.38 1010.33 1010.27 1010.23 1010.20 1010.21 1010.23 1010.26 1010.27 1010.25 1010.19 1010.07 1009.91 1009.71 1009.50 1009.30 1009.14 1009.02 1008.96
1006.82 1006.76 1006.81 1006.96 1007.18 1007.45 1007.73 1008.01 1008.29 1008.55 1008.82 1009.08 1009.33 1009.58 1009.81 1010.00 1010.15 1010.25 1010.30 1010.30 1010.27 1010.23 1010.18 1010.16 1010.16 1010.18 1010.22 1010.25 1010.27 1010.25 1010.19 1010.09 1009.96 1009.82 1009.67 1009.55 1009.46 1009.42
1006.89 1006.80 1006.82 1006.95 1007.14 1007.38 1007.64 1007.90 1008.15 1008.39 1008.62 1008.86 1009.10 1009.34 1009.57 1009.77 1009.95 1010.07 1010.15 1010.17 1010.16 1010.12 1010.08 1010.05 1010.04 1010.06 1010.09 1010.14 1010.18 1010.20 1010.21 1010.18 1010.12 1010.05 1009.98 1009.91 1009.86 1009.84
1007.10 1006.98 1007.00 1007.11 1007.28 1007.50 1007.72 1007.94 1008.14 1008.33 1008.51 1008.70 1008.90 1009.11 1009.32 1009.53 1009.70 1009.84 1009.93 1009.98 1009.98 1009.95 1009.91 1009.87 1009.85 1009.85 1009.88 1009.93 1010.00 1010.07 1010.13 1010.18 1010.20 1010.21 1010.21 1010.20 1010.20 1010.21
1007.44 1007.34 1007.35 1007.45 1007.61 1007.80 1007.98 1008.14 1008.28 1008.40 1008.52 1008.64 1008.78 1008.94 1009.11 1009.29 1009.45 1009.58 1009.68 1009.73 1009.73 1009.70 1009.65 1009.60 1009.56 1009.56 1009.58 1009.64 1009.73 1009.84 1009.96 1010.08 1010.19 1010.28 1010.36 1010.42 1010.47 1010.52
1007.96 1007.88 1007.90 1007.99 1008.13 1008.28 1008.42 1008.52 1008.59 1008.63 1008.67 1008.71 1008.77 1008.86 1008.98 1009.11 1009.23 1009.34 1009.41 1009.45 1009.44 1009.39 1009.33 1009.26 1009.21 1009.18 1009.20 1009.27 1009.38 1009.52 1009.70 1009.88 1010.06 1010.23 1010.39 1010.52 1010.63 1010.71
1008.67 1008.61 1008.64 1008.73 1008.84 1008.95 1009.03 1009.07 1009.06 1009.03 1008.98 1008.94 1008.92 1008.93 1008.97 1009.04 1009.11 1009.16 1009.20 1009.19 1009.15 1009.08 1008.98 1008.88 1008.81 1008.76 1008.77 1008.83 1008.95 1009.12 1009.33 1009.56 1009.80 1010.03 1010.25 1010.44 1010.60 1010.73
1009.58 1009.54 1009.56 1009.64 1009.72 1009.78 1009.80 1009.77 1009.70 1009.59 1009.47 1009.35 1009.25 1009.18 1009.14 1009.13 1009.12 1009.11 1009.08 1009.02 1008.93 1008.80 1008.67 1008.53 1008.42 1008.34 1008.32 1008.37 1008.48 1008.65 1008.87 1009.12 1009.39 1009.66 1009.92 1010.15 1010.35 1010.52
1010.66 1010.62 1010.63 1010.68 1010.71 1010.72 1010.69 1010.60 1010.47 1010.31 1010.12 1009.94 1009.77 1009.63 1009.51 1009.42 1009.33 1009.24 1009.13 1008.99 1008.83 1008.64 1008.45 1008.26 1008.10 1007.99 1007.93 1007.93 1008.01 1008.15 1008.35 1008.58 1008.84 1009.10 1009.36 1009.60 1009.81 1010.00
1011.84 1011.80 1011.78 1011.79 1011.78 1011.74 1011.65 1011.52 1011.34 1011.14 1010.91 1010.69 1010.47 1010.27 1010.08 1009.91 1009.74 1009.56 1009.36 1009.14 1008.90 1008.64 1008.38 1008.13 1007.92 1007.74 1007.63 1007.58 1007.60 1007.67 1007.80 1007.97 1008.17 1008.38 1008.59 1008.80 1009.00 1009.18
1013.06 1012.99 1012.94 1012.89 1012.83 1012.75 1012.62 1012.46 1012.26 1012.04 1011.80 1011.55 1011.30 1011.06 1010.82 1010.58 1010.34 1010.07 1009.79 1009.48 1009.16 1008.83 1008.50 1008.19 1007.90 1007.66 1007.48 1007.35 1007.28 1007.26 1007.29 1007.35 1007.44 1007.55 1007.67 1007.80 1007.94 1008.08
1014.21 1014.11 1014.02 1013.92 1013.82 1013.69 1013.55 1013.37 1013.17 1012.95 1012.72 1012.47 1012.21 1011.95 1011.67 1011.38 1011.06 1010.72 1010.36 1009.98 1009.58 1009.18 1008.78 1008.41 1008.06 1007.75 1007.49 1007.27 1007.10 1006.96 1006.86 1006.78 1006.73 1006.70 1006.68 1006.70 1006.73 1006.80
1015.24 1015.10 1014.97 1014.83 1014.69 1014.54 1014.39 1014.21 1014.03 1013.83 1013.61 1013.38 1013.13 1012.85 1012.55 1012.21 1011.84 1011.44 1011.01 1010.56 1010.10 1009.64 1009.19 1008.76 1008.35 1007.98 1007.64 1007.34 1007.05 1006.79 1006.55 1006.32 1006.11 1005.92 1005.75 1005.62 1005.53 1005.50
1016.10 1015.93 1015.76 1015.60 1015.44 1015.28 1015.13 1014.97 1014.81 1014.64 1014.45 1014.23 1013.99 1013.70 1013.37 1013.00 1012.58 1012.13 1011.64 1011.13 1010.62 1010.11 1009.62 1009.15 1008.70 1008.28 1007.88 1007.50 1007.13 1006.76 1006.39 1006.02 1005.66 1005.31 1004.99 1004.72 1004.49 1004.34
1016.80 1016.62 1016.43 1016.26 1016.09 1015.93 1015.79 1015.65 1015.51 1015.36 1015.19 1014.99 1014.74 1014.44 1014.09 1013.67 1013.21 1012.70 1012.17 1011.61 1011.06 1010.52 1009.99 1009.50 1009.02 1008.57 1008.13 1007.70 1007.26 1006.81 1006.35 1005.87 1005.40 1004.93 1004.48 1004.08 1003.75 1003.49
1017.40 1017.21 1017.02 1016.84 1016.68 1016.53 1016.40 1016.27 1016.15 1016.01 1015.84 1015.63 1015.37 1015.04 1014.65 1014.19 1013.68 1013.12 1012.53 1011.94 1011.35 1010.77 1010.23 1009.71 1009.23 1008.76 1008.30 1007.84 1007.37 1006.88 1006.37 1005.84 1005.30 1004.77 1004.26 1003.78 1003.37 1003.03
1017.93 1017.75 1017.57 1017.40 1017.24 1017.10 1016.98 1016.86 1016.73 1016.58 1016.40 1016.16 1015.86 1015.49 1015.05 1014.53 1013.96 1013.35 1012.72 1012.08 1011.45 1010.85 1010.29 1009.76 1009.26 1008.78 1008.32 1007.86 1007.38 1006.89 1006.38 1005.85 1005.32 1004.78 1004.26 1003.78 1003.35 1002.99
1018.45 1018.28 1018.11 1017.95 1017.81 1017.67 1017.54 1017.41 1017.27 1017.09 1016.87 1016.59 1016.24 1015.80 1015.30 1014.72 1014.09 1013.43 1012.74 1012.06 1011.39 1010.76 1010.16 1009.61 1009.10 1008.61 1008.15 1007.69 1007.23 1006.77 1006.30 1005.81 1005.33 1004.85 1004.40 1003.97 1003.60 1003.28
1018.97 1018.82 1018.66 1018.51 1018.37 1018.23 1018.08 1017.93 1017.74 1017.52 1017.25 1016.91 1016.49 1016.00 1015.43 1014.80 1014.11 1013.39 1012.66 1011.93 1011.22 1010.54 1009.91 1009.32 1008.77 1008.26 1007.78 1007.32 1006.88 1006.45 1006.03 1005.62 1005.23 1004.86 1004.52 1004.22 1003.95 1003.74
Thickness
5713 5712 5711 5711 5711 5710 5709 5706 5700 5694 5695 5701 5704 5707 5707 5706 5705 5703 5702 5700 5698 5697 5695 5694 5692 5691 5689 5688 5687 5685 5683 5682 5681 5679 5678 5677 5676 5675
5710 5709 5707 5707 5707 5707 5706 5704 5702 5698 5694 5698 5700 5702 5703 5703 5701 5700 5699 5697 5695 5694 5693 5691 5690 5689 5687 5686 5685 5683 5682 5680 5679 5678 5676 5675 5674 5673
5706 5705 5704 5704 5702 5702 5702 5701 5699 5697 5693 5695 5697 5698 5698 5698 5697 5697 5695 5694 5693 5691 5690 5689 5688 5687 5686 5685 5683 5682 5680 5679 5677 5676 5674 5673 5672 5670
5702 5701 5700 5700 5698 5697 5697 5696 5695 5695 5692 5689 5691 5692 5693 5693 5693 5692 5692 5691 5690 5690 5688 5687 5686 5685 5684 5683 5682 5680 5679 5677 5676 5674 5673 5671 5670 5668
5698 5697 5696 5694 5693 5693 5692 5692 5692 5692 5690 5687 5686 5687 5688 5688 5687 5687 5688 5687 5687 5687 5687 5686 5684 5683 5682 5681 5680 5679 5677 5676 5674 5672 5671 5669 5667 5665
5693 5692 5692 5691 5690 5689 5689 5688 5687 5686 5684 5683 5681 5681 5682 5683 5682 5680 5680 5681 5682 5684 5684 5684 5683 5682 5681 5680 5679 5677 5676 5674 5672 5670 5668 5666 5665 5663
5686 5687 5688 5688 5688 5686 5686 5683 5682 5680 5678 5677 5675 5675 5675 5675 5675 5676 5675 5676 5677 5679 5679 5680 5680 5679 5679 5678 5677 5676 5674 5673 5671 5668 5666 5664 5662 5660
5678 5679 5681 5682 5682 5682 5681 5681 5680 5677 5674 5672 5671 5670 5671 5672 5672 5672 5670 5669 5669 5674 5673 5675 5676 5676 5677 5677 5676 5675 5673 5671 5669 5667 5665 5662 5660 5658
5671 5671 5674 5675 5675 5675 5674 5675 5674 5673 5673 5671 5668 5668 5668 5669 5668 5667 5666 5666 5666 5670 5669 5670 5672 5672 5674 5675 5674 5673 5670 5669 5668 5667 5664 5661 5658 5656
5663 5664 5664 5665 5667 5667 5666 5666 5666 5667 5667 5667 5666 5667 5667 5667 5666 5665 5663 5663 5664 5666 5667 5664 5667 5668 5672 5671 5671 5669 5667 5666 5666 5664 5662 5659 5656 5654
5655 5657 5657 5658 5659 5659 5659 5658 5658 5659 5662 5662 5662 5662 5662 5662 5661 5659 5657 5656 5655 5659 5662 5660 5662 5663 5665 5666 5666 5665 5664 5662 5661 5660 5658 5656 5654 5651
5646 5648 5648 5650 5651 5651 5651 5651 5650 5651 5652 5654 5654 5655 5655 5656 5656 5655 5654 5651 5650 5652 5657 5656 5656 5655 5655 5660 5660 5661 5659 5658 5657 5655 5654 5653 5650 5647
5637 5638 5640 5641 5643 5644 5645 5645 5644 5644 5644 5645 5646 5647 5648 5649 5649 5650 5651 5650 5648 5648 5652 5652 5651 5650 5649 5650 5653 5655 5654 5653 5652 5651 5650 5649 5646 5644
5629 5630 5632 5633 5635 5636 5637 5638 5638 5638 5637 5637 5638 5639 5640 5641 5643 5644 5646 5646 5648 5648 5649 5648 5647 5645 5643 5642 5644 5647 5648 5648 5648 5647 5645 5644 5642 5640
5622 5623 5624 5625 5626 5627 5629 5630 5630 5629 5630 5630 5631 5633 5634 5636 5637 5638 5639 5641 5642 5643 5644 5644 5643 5642 5640 5639 5639 5639 5640 5641 5642 5641 5640 5639 5637 5635
5614 5616 5617 5618 5618 5619 5620 5621 5622 5622 5623 5624 5625 5627 5628 5629 5629 5630 5631 5632 5632 5634 5637 5638 5638 5637 5635 5635 5634 5634 5634 5634 5635 5636 5635 5633 5633 5632
5606 5606 5607 5608 5609 5610 5612 5613 5614 5615 5616 5617 5618 5619 5620 5620 5622 5623 5623 5623 5623 5624 5626 5630 5631 5632 5632 5631 5628 5629 5628 5628 5629 5629 5628 5627 5627 5627
5598 5597 5597 5599 5600 5602 5603 5604 5606 5607 5609 5609 5610 5610 5611 5612 5613 5614 5615 5615 5616 5617 5618 5620 5622 5622 5622 5624 5626 5624 5623 5623 5623 5623 5622 5620 5620 5622
5590 5590 5591 5591 5593 5594 5595 5597 5598 5600 5601 5602 5602 5603 5604 5604 5605 5606 5606 5607 5608 5609 5611 5612 5613 5612 5611 5613 5617 5619 5618 5617 5616 5616 5615 5615 5615 5616
5583 5584 5584 5585 5586 5587 5589 5590 5591 5592 5592 5593 5594 5595 5595 5596 5596 5597 5598 5599 5600 5601 5603 5604 5605 5606 5606 5606 5608 5611 5613 5611 5610 5609 5608 5608 5608 5609
5577 5577 5578 5579 5580 5581 5582 5582 5583 5583 5583 5583 5584 5585 5587 5587 5587 5589 5590 5591 5592 5593 5595 5597 5599 5601 5601 5600 5599 5601 5603 5605 5606 5604 5603 5600 5599 5599
5570 5571 5572 5572 5573 5574 5574 5574 5574 5575 5575 5575 5576 5577 5578 5579 5579 5580 5581 5582 5583 5585 5587 5589 5591 5592 5591 5591 5591 5592 5593 5595 5597 5598 5597 5597 5594 5593
5564 5565 5565 5565 5565 5565 5566 5566 5566 5566 5567 5567 5568 5568 5569 5570 5571 5572 5573 5574 5575 5576 5577 5579 5581 5581 5582 5582 5582 5582 5584 5585 5586 5586 5587 5589 5590 5591